Location: Hannover
(52.3723°N, 9.7339°E)
Time: 06:55:55
(UTC+01:00)

ISS - Visible Passes

Search period start: 25 February 2018 00:00
Search period end: 07 March 2018 00:00
Orbit: 402 x 407 km, 51.6° (Epoch: 25 February)

Date Brightness Start Highest point End Pass type
(mag) Time Alt. Az. Time Alt. Az. Time Alt. Az.
26 Feb -0.5 06:26:59 10° SSE 06:27:30 10° SE 06:28:01 10° SE visible
28 Feb -1.2 06:16:43 10° S 06:19:05 19° SE 06:21:27 10° E visible
01 Mar -0.9 05:25:39 10° SSE 05:27:02 12° SE 05:28:26 10° ESE visible
02 Mar -2.2 06:07:47 10° SW 06:10:43 30° SSE 06:13:39 10° E visible
03 Mar -1.7 05:16:53 15° S 05:18:35 21° SSE 05:21:08 10° E visible
04 Mar -1.1 04:26:47 14° SE 04:26:47 14° SE 04:28:19 10° ESE visible
04 Mar -3.1 05:59:26 11° SW 06:02:23 47° SSE 06:05:35 10° E visible
05 Mar -2.6 05:09:14 28° S 05:10:10 34° SSE 05:13:11 10° E visible
06 Mar -1.6 04:18:58 21° ESE 04:18:58 21° ESE 04:20:41 10° E visible
06 Mar -3.6 05:51:36 16° WSW 05:54:05 66° SSE 05:57:22 10° E visible
